NUVIEW ALPHA (62455 NORAD) Tracking and Keplerian Element Data

This shows tracking and keplerian element data for the satellite.

Feedback or suggestion? Click here.




ElementValue
Catalog62455
NameNUVIEW ALPHA
Epoch Orbit36
Epoch Day31.82189607
Epoch Year2025
RAAN353.3043
Inclination9.9071
Eccentricity0.7616212
Argument of Perigee190.8991
Mean Anonmoly130.4785
Mean Motion1.05174712
Decay Rate-1.84E-06
L11 62455U 24252B 25031.82189607 -.00000184 00000+0 00000+0 0 9991
L22 62455 9.9071 353.3043 7616212 190.8991 130.4785 1.05174712 368



Live tracking and technical data element details for NUVIEW ALPHA (NORAD 62455). NUVIEW ALPHA can be tracked NOW for your location showing map with azimuth and elevation plus other details from your city location.







IsCatalogInMostPopularTable: catalog: 62455, numindb: 12
Update: records affected: 1



GetName: 62455 NUVIEW ALPHA

Hit Count: updated at: Mon, 19 May 2025 02:21:11 GMT